Location: Brachbach
(49.1847°N, 9.7240°E)
Time: 14:39:57
(UTC+00:00)

AO-27 - Visible Passes

Search period start: 14 March 2026 00:00
Search period end: 24 March 2026 00:00
Orbit: 782 x 795 km, 98.7° (Epoch: 14 March)

Date Brightness Start Highest point End Pass type
(mag) Time Alt. Az. Time Alt. Az. Time Alt. Az.
14 Mar 8.4 19:43:43 35° NE 19:43:43 35° NE 19:48:05 10° N visible
14 Mar 9.3 21:24:25 30° WNW 21:24:25 30° WNW 21:27:37 10° NNW visible
15 Mar 9.0 19:13:18 22° ENE 19:13:44 22° ENE 19:17:38 10° N visible
15 Mar 8.4 20:53:59 49° NW 20:53:59 49° NW 20:57:54 10° NNW visible
16 Mar 9.5 18:42:53 12° ENE 18:44:13 14° NE 18:46:42 10° NNE visible
16 Mar 7.9 20:23:34 60° NNE 20:23:34 60° NNE 20:27:58 10° N visible
16 Mar 10.1 22:04:16 16° WNW 22:04:16 16° WNW 22:06:17 10° NW visible
17 Mar 8.2 19:53:09 41° ENE 19:53:09 41° ENE 19:57:49 10° N visible
17 Mar 9.4 21:33:50 28° WNW 21:33:50 28° WNW 21:37:08 10° NNW visible
18 Mar 8.8 19:22:44 25° ENE 19:23:17 25° ENE 19:27:28 10° N visible
18 Mar 8.5 21:03:26 47° WNW 21:03:26 47° WNW 21:07:30 10° NNW visible
19 Mar 9.3 18:52:20 14° ENE 18:53:43 16° NE 18:56:46 10° NNE visible
19 Mar 7.7 20:33:01 70° N 20:33:01 70° N 20:37:38 10° NNW visible
19 Mar 10.2 22:13:42 14° WNW 22:13:42 14° WNW 22:15:30 10° NW visible
20 Mar 7.9 20:02:36 49° ENE 20:02:36 49° ENE 20:07:33 10° N visible
20 Mar 9.5 21:43:17 25° WNW 21:43:17 25° WNW 21:46:36 10° NW visible
21 Mar 8.6 19:32:11 29° ENE 19:32:50 30° ENE 19:37:17 10° N visible
21 Mar 8.6 21:12:52 43° WNW 21:12:52 43° WNW 21:17:05 10° NNW visible
22 Mar 9.2 19:01:46 17° ENE 19:03:14 18° NE 19:06:42 10° NNE visible
22 Mar 7.7 20:42:27 75° NW 20:42:27 75° NW 20:47:17 10° NNW visible
22 Mar 10.3 22:23:08 12° WNW 22:23:08 12° WNW 22:24:29 10° WNW visible
23 Mar 9.6 18:32:10 10° ENE 18:33:45 11° NE 18:35:21 10° NNE visible
23 Mar 7.7 20:12:02 58° ENE 20:12:09 59° ENE 20:17:16 10° N visible
23 Mar 9.6 21:52:43 22° W 21:52:43 22° W 21:56:01 10° NW visible
